User: anonymous   Login
Location: Unspecified
(0.0000°N, 0.0000°E)
Time: 01:35:41
(UTC+00:00)
Language:

Kosmos-926 - Orbit

View from above orbital plane
View from above orbital plane
View from above satellite
View from above satellite

Ground track
Ground track

The orbit data is extracted from the following two-line orbital elements,

1 10137U 77062A   18174.59218372 +.00000046 +00000-0 +33221-4 0  9997
2 10137 082.9409 358.2987 0032436 183.7341 207.7622 13.72302035050459
Epoch (UTC): 23 June 2018 14:12:44
Eccentricity: 0.0032436
inclination: 82.9409°
perigee height: 967 km
apogee height: 1015 km
right ascension of ascending node: 358.2987°
argument of perigee: 183.7341°
revolutions per day: 13.72302035
mean anomaly at epoch: 207.7622°
orbit number at epoch: 5045

The dashed part of the orbit path shows where the satellite is in the earth's shadow,  

DLR